This demonstration page uses our WeatherBlox Daily Observations layout. Learn more.

Left ArrowRight Arrow

39.01783, -85.05884

Hourly Observations for June 15, 2018

Temp ( °F °C ) Dew Point ( °F °C ) Humidity (%) Winds ( mph kmh ) Pressure ( in mb ) Visibility ( mi km ) Precip ( " mm )
12:52 am 00:52 Mostly Cloudy 69 20.6 55 12.8 61 61 SE 5 7 30.00 1016 10 16 N/A
1:52 am 01:52 Partly Cloudy 69 20.6 54 12.2 59 59 N N/A 30.01 1016 10 16 N/A
2:52 am 02:52 Mostly Cloudy 70 21.1 54 12.2 57 57 N N/A 30.00 1016 10 16 N/A
3:52 am 03:52 Mostly Cloudy 69 20.6 55 12.8 61 61 ENE 3 6 30.01 1016 10 16 N/A
4:52 am 04:52 Mostly Cloudy 61 16.1 56 13.3 84 84 N N/A 30.02 1017 10 16 N/A
5:52 am 05:52 Mostly Clear 66 18.9 57 13.9 73 73 NNE 3 6 30.04 1017 10 16 N/A
6:52 am 06:52 Partly Cloudy 66 18.9 58 14.4 75 75 E 5 7 30.04 1017 10 16 N/A
7:52 am 07:52 Mostly Cloudy 70 21.1 58 14.4 66 66 E 7 11 30.05 1018 10 16 N/A
8:52 am 08:52 Mostly Cloudy 76 24.4 57 13.9 52 52 SE 8 13 30.04 1017 10 16 N/A
9:52 am 09:52 Partly Cloudy 79 26.1 57 13.9 47 47 SE 8 13 30.03 1017 10 16 N/A
10:52 am 10:52 Partly Cloudy 80 26.7 57 13.9 45 45 S 8 13 30.01 1016 10 16 N/A
11:52 am 11:52 Mostly Sunny 82 27.8 56 13.3 41 41 S 10 17 30.02 1017 10 16 N/A
12:52 pm 12:52 Mostly Sunny 83 28.3 56 13.3 40 40 SW 5 7 30.02 1017 10 16 N/A
1:52 pm 13:52 Mostly Sunny 87 30.6 55 12.8 34 34 NE 5 7 30.01 1016 10 16 N/A
2:52 pm 14:52 Mostly Sunny 87 30.6 51 10.6 29 29 N N/A 29.99 1016 10 16 N/A
3:52 pm 15:52 Partly Cloudy 89 31.7 50 10 26 26 N 6 9 29.98 1015 10 16 N/A
4:52 pm 16:52 Partly Cloudy 88 31.1 51 10.6 28 28 N N/A 29.97 1015 10 16 N/A
5:52 pm 17:52 Mostly Cloudy 87 30.6 56 13.3 35 35 undefined N/A 29.97 1015 10 16 N/A
6:52 pm 18:52 Mostly Cloudy 86 30 58 14.4 39 39 VRB 5 7 29.96 1014 10 16 N/A
7:52 pm 19:52 Mostly Cloudy 83 28.3 60 15.6 46 46 S 3 6 29.95 1014 10 16 N/A
8:52 pm 20:52 Partly Cloudy 82 27.8 58 14.4 44 44 N N/A 29.96 1015 10 16 N/A
9:52 pm 21:52 Partly Cloudy 75 23.9 59 15 58 58 S 3 6 29.98 1015 10 16 N/A
10:52 pm 22:52 Partly Cloudy 76 24.4 57 13.9 52 52 N N/A 29.99 1016 10 16 N/A
11:52 pm 23:52 Mostly Clear 74 23.3 57 13.9 56 56 S 5 7 30.00 1016 10 16 N/A

Powered by AerisWeather